Location: Dompnac
(44.5644°N, 4.1026°E)
Time: 18:45:54
(UTC+00:00)

Cosmos 1634 Rocket - Pass Details

Date: 24 January 2021
Orbit: 961 x 991 km, 82.9° (Epoch: 05 March)

Event Time Altitude Azimuth Distance (km) Brightness Sun altitude
Rises 18:06:29 0° 339° (NNW) 3,683 7.1 -15.1°
Reaches altitude 10° 18:09:36 10° 324° (NW) 2,736 6.7 -15.6°
Maximum altitude 18:14:04 21° 278° (W) 2,050 6.6 -16.4°
Drops below altitude 10° 18:18:33 10° 232° (SW) 2,737 7.3 -17.2°
Sets 18:21:41 0° 217° (SW) 3,685 7.8 -17.7°
